[[[{"header":{"parameterUnit":"kt","parameterCategory":2,"dx":1,"dy":1,"la1":30.253999710083008,"la2":30.299108505249023,"lo1":-89.0895004272461,"lo2":-89.04439544677734,"nx":28,"ny":28,"refTime":"2022-10-03T21:00:00:Z","depth":0,"parameterNumber":1,"parameterNumberName":"U-component_of_WINDS"},"data":[-1.2466,-1.2441,-1.2383,-1.2326,-1.2263,-1.2214,-1.2177,-1.2122,-1.2063,-1.1994,-1.1944,-1.1878,-1.1792,-1.1715,-1.1655,-1.1626,-1.1606,-1.1642,-1.1602,-1.1497,-1.1478,-1.1461,-1.1464,-1.1638,-1.1638,-1.172,-1.1721,-1.1722,-1.2399,-1.2338,-1.2291,-1.2204,-1.2163,-1.2093,-1.2017,-1.1987,-1.1943,-1.1868,-1.1814,-1.1747,-1.1685,-1.1583,-1.1512,-1.1497,-1.1459,-1.1482,-1.1483,-1.1471,-1.1356,-1.1361,-1.1515,-1.1515,-1.1515,-1.1515,-1.1515,-1.1515,-1.2262,-1.2249,-1.2163,-1.2109,-1.2049,-1.199,-1.1966,-1.1887,-1.1837,-1.1758,-1.1692,-1.164,-1.1551,-1.1433,-1.1377,-1.1332,-1.1294,-1.13,-1.1301,-1.1305,-1.1319,-1.1214,-1.1316,-1.1316,-1.1315,-1.1314,-1.1314,0,-1.2144,-1.2095,-1.2044,-1.1977,-1.1934,-1.1874,-1.1808,-1.1791,-1.1661,-1.1625,-1.1566,-1.1522,-1.1432,-1.1368,-1.1286,-1.1224,-1.1145,-1.1128,-1.1132,-1.1166,-1.1208,-1.1188,-1.1006,-1.1126,-1.1124,-1.1123,-1.1122,-1.1121,-1.2003,-1.1993,-1.1871,-1.1844,-1.1792,-1.1748,-1.1709,-1.1595,-1.1558,-1.1458,-1.1449,-1.1384,-1.1325,-1.1238,-1.114,-1.1071,-1.1032,-1.1085,-1.1021,-1.1054,-1.1035,-1.1038,-1.1037,-1.1101,-1.1103,-1.1105,-1.1107,0,-1.193,-1.183,-1.1795,-1.1672,-1.1641,-1.1636,-1.153,-1.1509,-1.1432,-1.1393,-1.1376,-1.1254,-1.1196,-1.1088,-1.0998,-1.0944,-1.0932,-1.0894,-1.0964,-1.0951,-1.099,-1.0989,-1.1128,-1.1141,-1.0958,-1.0959,-1.0961,0,-1.1771,-1.1762,-1.1613,-1.1597,-1.1583,-1.1468,-1.1456,-1.1388,-1.1308,-1.1276,-1.1168,-1.114,-1.1005,-1.0961,-1.0879,-1.085,-1.0831,-1.0788,-1.0767,-1.0799,-1.0805,-1.0777,-1.077,-1.0716,-1.0716,-1.0715,-1.0715,0,-1.1669,-1.1576,-1.155,-1.1512,-1.1378,-1.1368,-1.1311,-1.122,-1.1181,-1.1112,-1.1086,-1.1013,-1.0973,-1.0918,-1.0815,-1.0776,-1.0775,-1.0699,-1.0731,-1.0734,-1.0737,-1.0739,-1.0889,-1.0714,-1.0714,-1.0713,-1.0713,0,-1.1525,-1.1461,-1.1437,-1.1323,-1.1303,-1.1284,-1.1207,-1.1165,-1.1076,-1.1024,-1.0969,-1.0883,-1.0847,-1.078,-1.0728,-1.0707,-1.0674,-1.0628,-1.0628,-1.0619,-1.0548,-1.065,-1.0802,-1.0815,-1.0611,-1.061,-1.0609,0,-1.1437,-1.1385,-1.1286,-1.1264,-1.1225,-1.1108,-1.1084,-1.1009,-1.0937,-1.0892,-1.0811,-1.0759,-1.0686,-1.0654,-1.0642,-1.0557,-1.0584,-1.0549,-1.0484,-1.0483,-1.0515,-1.0653,-1.0704,-1.0781,-1.0596,-1.0597,-1.0598,0,-1.1356,-1.1194,-1.1197,-1.1149,-1.1031,-1.0996,-1.0968,-1.0892,-1.0868,-1.0792,-1.0766,-1.0688,-1.063,-1.0578,-1.05,-1.0493,-1.0562,-1.0431,-1.0427,-1.0461,-1.0579,-1.0629,-1.0642,-1.051,-1.0512,-1.0513,-1.0588,0,-1.1166,-1.1125,-1.1128,-1.1024,-1.098,-1.0958,-1.0844,-1.0812,-1.0743,-1.0667,-1.0624,-1.053,-1.0449,-1.0433,-1.0363,-1.0383,-1.0363,-1.0301,-1.0228,-1.0319,-1.0341,-1.035,-1.0205,-1.0202,-1.02,-1.0198,0,0,-1.1108,-1.1046,-1.0936,-1.0906,-1.0862,-1.0739,-1.0727,-1.0668,-1.0554,-1.0526,-1.0484,-1.0362,-1.0286,-1.0246,-1.0265,-1.0231,-1.0224,-1.0196,-1.0276,-1.0285,-1.0293,-1.0319,-1.033,-1.0193,-1.0192,-1.0192,-1.0191,0,-1.1015,-1.0944,-1.0934,-1.0869,-1.077,-1.069,-1.0688,-1.0566,-1.0517,-1.0473,-1.0371,-1.033,-1.0233,-1.0168,-1.0122,-1.0198,-1.0122,-1.0181,-1.0263,-1.0256,-1.0268,-1.0279,-1.0308,-1.0319,-1.0185,-1.0185,-1.0186,0,-1.0916,-1.0828,-1.081,-1.0704,-1.0636,-1.0597,-1.0494,-1.0455,-1.0424,-1.0288,-1.0247,-1.0178,-1.0079,-1.0055,-1.004,-1.0001,-1.0036,-1.0003,-1.0014,-1.001,-0.9997,-1.0013,-1.0026,-0.9849,-0.9849,-0.9848,0,0,-1.0851,-1.0812,-1.068,-1.0675,-1.064,-1.052,-1.0486,-1.0413,-1.0328,-1.0295,-1.0205,-1.0125,-1.0067,-1.0031,-0.997,-0.996,-0.993,-0.9966,-0.9982,-0.9995,-0.9999,-0.999,-1.0005,-0.9845,-0.9845,-0.9845,0,0,-1.0819,-1.0667,-1.0612,-1.0592,-1.0517,-1.0384,-1.0385,-1.0314,-1.0248,-1.0237,-1.0108,-1.008,-1.0055,-0.9991,-0.9971,-0.9943,-0.9873,-0.9875,-0.9986,-1.0004,-1.0019,-1.0036,-0.985,0,0,0,0,0,-1.0665,-1.0686,-1.0638,-1.0617,-1.0479,-1.0412,-1.0393,-1.0289,-1.0243,-1.0246,-1.016,-1.0079,-0.9954,-0.9933,-0.9914,-0.9937,-0.9813,-0.9819,-0.9824,-0.9964,-0.9984,-1.0002,0,0,0,0,0,0,-1.0656,-1.0632,-1.0637,-1.0508,-1.0475,-1.041,-1.031,-1.0281,-1.024,-1.0226,-1.0099,-1.0075,-0.9983,-0.9936,-0.992,-0.9945,-0.9855,-0.9815,-0.982,-0.9824,-0.9971,-0.9988,-1.0002,0,0,0,0,0,-1.0649,-1.0629,-1.0435,-1.0506,-1.0479,-1.0345,-1.0308,-1.0283,-1.0249,-1.0114,-1.0089,-1.0174,-0.9987,-0.9966,-0.9926,-0.9955,-0.9865,-0.986,-0.9818,-0.9822,-0.9826,-0.9979,0,0,0,0,0,0,-1.0643,-1.0605,-1.0427,-1.0415,-1.0491,-1.0346,-1.032,-1.0286,-1.0138,-1.0113,-1.0184,-1.0174,-0.999,-0.9973,-0.9957,-0.9964,-0.9874,-0.9868,-0.9865,-0.9821,-0.9824,-0.9827,0,0,0,0,0,0,-1.0615,-1.0595,-1.0421,-1.0407,-1.0392,-1.0348,-1.0325,-1.0275,-1.0138,-1.0215,-1.0202,-1.0181,-1.0012,-0.9978,-0.9965,-0.9891,-0.988,-0.9875,-0.9871,-0.9869,-0.9824,-0.9826,0,0,0,0,0,0,-1.0605,-1.0588,-1.0409,-1.0398,-1.0384,-1.0236,-1.0301,-1.0165,-1.0129,-1.0223,-1.0123,-1.012,-1.0019,-1.0004,-0.9971,-0.9903,-0.9894,-0.988,-0.9876,-0.9874,-0.9872,0,0,0,0,0,0,0,-1.0596,-1.0735,-1.0502,-1.039,-1.0378,-1.03,-1.0296,-1.0293,-1.0129,-1.0126,-1.0124,-1.0121,-0.9912,-0.9906,-0.99,-0.9913,0,0,-0.9881,-0.9878,0,0,0,0,0,0,0,0,-1.0739,-1.0736,-1.0501,-1.0499,-1.0496,-1.0299,-1.0296,-1.0293,-1.0128,-1.0126,-1.0124,-1.0122,-0.991,-0.9905,-0.99,0,0,0,0,0,0,0,0,0,0,0,0,0,0,0,-1.0501,-1.0499,0,-1.0299,-1.0296,-1.0294,-1.0128,-1.0126,-1.0125,-1.0123,-0.9909,-0.9905,-0.9901,0,0,0,0,0,0,0,0,0,0,0,0,0,0,0,0,0,0,0,0,0,0,0,0,0,0,0,0,0,0,0,0,0,0,0,0,0,0,0,0,0,0,0,0,0,0,0,0,0,0,0,0,0,0,0,0,0,0,0,0,0,0,0,0,0,0,0,0,0]}],[{"header":{"parameterUnit":"kt","parameterCategory":2,"dx":1,"dy":1,"la1":30.253999710083008,"la2":30.299108505249023,"lo1":-89.0895004272461,"lo2":-89.04439544677734,"nx":28,"ny":28,"refTime":"2022-10-03T21:00:00:Z","depth":0,"parameterNumber":2,"parameterNumberName":"V-component_of_WINDS"},"data":[-0.7582,-0.7708,-0.7854,-0.8064,-0.823,-0.8399,-0.8506,-0.8658,-0.8817,-0.9032,-0.9181,-0.9338,-0.9553,-0.9764,-0.9932,-0.9999,-1.0061,-0.9999,-1.0089,-1.0234,-1.0264,-1.0292,-1.0276,-1.0009,-1.0009,-0.9921,-0.992,-0.992,-0.7678,-0.7845,-0.7997,-0.8246,-0.8379,-0.8527,-0.8735,-0.8836,-0.8981,-0.9175,-0.933,-0.953,-0.9706,-0.9946,-1.014,-1.02,-1.0282,-1.0243,-1.0244,-1.0276,-1.0435,-1.0416,-1.0174,-1.0174,-1.0174,-1.0174,-1.0174,-1.0174,-0.7892,-0.796,-0.8198,-0.8367,-0.8531,-0.8695,-0.8785,-0.898,-0.913,-0.9352,-0.9496,-0.9661,-0.9883,-1.0188,-1.0324,-1.0458,-1.0528,-1.0531,-1.0533,-1.0532,-1.0512,-1.0628,-1.0496,-1.0497,-1.0498,-1.0499,-1.05,0,-0.8097,-0.8217,-0.8374,-0.8574,-0.8705,-0.8874,-0.9054,-0.9112,-0.9413,-0.9523,-0.9696,-0.982,-1.0063,-1.0242,-1.0454,-1.06,-1.0766,-1.0796,-1.0801,-1.0738,-1.0654,-1.0706,-1.0963,-1.08,-1.0803,-1.0806,-1.0807,-1.0809,-0.833,-0.839,-0.871,-0.88,-0.8937,-0.9076,-0.919,-0.9452,-0.956,-0.9818,-0.9863,-1.0045,-1.0206,-1.0453,-1.0679,-1.086,-1.0944,-1.0867,-1.0972,-1.0908,-1.0951,-1.0947,-1.0957,-1.0842,-1.0838,-1.0834,-1.0832,0,-0.8448,-0.8692,-0.8832,-0.9143,-0.9223,-0.9272,-0.9538,-0.9614,-0.9796,-0.9926,-0.9972,-1.0255,-1.0419,-1.066,-1.0892,-1.1013,-1.1097,-1.1171,-1.1025,-1.1055,-1.1014,-1.1016,-1.0831,-1.0823,-1.1095,-1.1092,-1.109,0,-0.8746,-0.8813,-0.9173,-0.9242,-0.9326,-0.9591,-0.9666,-0.983,-1.0029,-1.0134,-1.0362,-1.0456,-1.075,-1.0877,-1.1055,-1.1166,-1.1208,-1.1309,-1.1357,-1.1293,-1.128,-1.1357,-1.1372,-1.1454,-1.1455,-1.1456,-1.1456,0,-0.8911,-0.918,-0.9293,-0.9394,-0.9733,-0.9778,-0.992,-1.0145,-1.0253,-1.0431,-1.0505,-1.069,-1.0793,-1.0932,-1.1161,-1.1224,-1.13,-1.1434,-1.1405,-1.1399,-1.1413,-1.141,-1.1181,-1.1457,-1.1457,-1.1458,-1.1458,0,-0.9191,-0.937,-0.9494,-0.9784,-0.9844,-0.9915,-1.0122,-1.0239,-1.0458,-1.0578,-1.0719,-1.0902,-1.1016,-1.1132,-1.1294,-1.1314,-1.1401,-1.1508,-1.151,-1.154,-1.1666,-1.1511,-1.1264,-1.1251,-1.156,-1.1561,-1.1562,0,-0.9316,-0.9507,-0.9739,-0.9849,-0.9972,-1.0228,-1.0312,-1.0499,-1.0666,-1.0794,-1.0977,-1.1117,-1.1256,-1.1334,-1.1381,-1.1576,-1.155,-1.1586,-1.1767,-1.177,-1.1708,-1.1482,-1.1389,-1.129,-1.1576,-1.1574,-1.1573,0,-0.9446,-0.986,-0.9863,-0.9993,-1.0286,-1.0388,-1.0482,-1.0683,-1.0756,-1.0939,-1.1028,-1.1227,-1.1343,-1.1468,-1.1636,-1.1672,-1.1575,-1.179,-1.18,-1.1748,-1.1601,-1.1513,-1.1495,-1.168,-1.1678,-1.1677,-1.1584,0,-0.9826,-0.9952,-0.997,-1.0242,-1.0359,-1.044,-1.0705,-1.0793,-1.0946,-1.1122,-1.1252,-1.1467,-1.1667,-1.1709,-1.1857,-1.1862,-1.1901,-1.2019,-1.2156,-1.2002,-1.1979,-1.1969,-1.217,-1.2175,-1.218,-1.2184,0,0,-0.9888,-1.0076,-1.0328,-1.0432,-1.0548,-1.0814,-1.0878,-1.102,-1.1298,-1.1372,-1.1449,-1.1762,-1.1932,-1.2063,-1.2036,-1.2113,-1.214,-1.2183,-1.2072,-1.2058,-1.2046,-1.2016,-1.2001,-1.2192,-1.2194,-1.2195,-1.2197,0,-1.0085,-1.0257,-1.0319,-1.0479,-1.0726,-1.0911,-1.0924,-1.1214,-1.133,-1.1458,-1.1675,-1.1783,-1.2022,-1.2179,-1.2288,-1.2173,-1.233,-1.2212,-1.2066,-1.2109,-1.2089,-1.2072,-1.2037,-1.202,-1.2208,-1.2207,-1.2207,0,-1.0264,-1.0481,-1.0538,-1.0813,-1.0976,-1.1093,-1.1302,-1.1414,-1.1504,-1.1786,-1.191,-1.2064,-1.2291,-1.2377,-1.2425,-1.2498,-1.2489,-1.2535,-1.2513,-1.2526,-1.258,-1.2555,-1.2533,-1.2819,-1.282,-1.2821,0,0,-1.0397,-1.0517,-1.0831,-1.0875,-1.0962,-1.1238,-1.1325,-1.149,-1.1691,-1.177,-1.1973,-1.2159,-1.2304,-1.2392,-1.254,-1.2596,-1.2667,-1.26,-1.2571,-1.2547,-1.2545,-1.2592,-1.2568,-1.2825,-1.2825,-1.2825,0,0,-1.0462,-1.083,-1.0951,-1.1036,-1.1221,-1.1533,-1.1549,-1.1704,-1.1865,-1.1885,-1.2164,-1.2225,-1.2311,-1.2452,-1.2477,-1.2594,-1.2722,-1.2722,-1.2499,-1.2467,-1.2439,-1.2405,-1.272,0,0,0,0,0,-1.08,-1.0786,-1.0892,-1.0945,-1.1292,-1.1473,-1.1519,-1.1752,-1.1841,-1.1848,-1.2043,-1.2205,-1.2524,-1.2553,-1.26,-1.2571,-1.2878,-1.2869,-1.286,-1.2588,-1.2551,-1.2519,0,0,0,0,0,0,-1.0824,-1.0889,-1.0893,-1.1199,-1.128,-1.1476,-1.1678,-1.1741,-1.1846,-1.1876,-1.2163,-1.2214,-1.2413,-1.2544,-1.2584,-1.2551,-1.2707,-1.2874,-1.2866,-1.2859,-1.2575,-1.2545,-1.2519,0,0,0,0,0,-1.0843,-1.0896,-1.1391,-1.1201,-1.1271,-1.1577,-1.168,-1.1735,-1.182,-1.2121,-1.2178,-1.1986,-1.2406,-1.2455,-1.2569,-1.2528,-1.2682,-1.2696,-1.2869,-1.2863,-1.2857,-1.256,0,0,0,0,0,0,-1.0858,-1.0946,-1.1411,-1.1441,-1.1226,-1.1571,-1.1634,-1.1728,-1.2064,-1.212,-1.1958,-1.1977,-1.2401,-1.244,-1.2476,-1.2507,-1.2661,-1.2675,-1.2684,-1.2864,-1.2859,-1.2855,0,0,0,0,0,0,-1.092,-1.0969,-1.1426,-1.1443,-1.1478,-1.1564,-1.162,-1.1748,-1.2064,-1.1883,-1.191,-1.1963,-1.2345,-1.2429,-1.2458,-1.265,-1.2645,-1.2659,-1.2668,-1.2674,-1.286,-1.2856,0,0,0,0,0,0,-1.0945,-1.0988,-1.1438,-1.1463,-1.1494,-1.1846,-1.1682,-1.2023,-1.2081,-1.1863,-1.2093,-1.2098,-1.2329,-1.2364,-1.2444,-1.2622,-1.2642,-1.2646,-1.2655,-1.2661,-1.2666,0,0,0,0,0,0,0,-1.0966,-1.0623,-1.1234,-1.148,-1.1507,-1.1716,-1.1725,-1.1733,-1.2082,-1.2087,-1.2092,-1.2096,-1.2569,-1.2584,-1.2599,-1.2599,0,0,-1.2645,-1.2651,0,0,0,0,0,0,0,0,-1.061,-1.062,-1.1235,-1.1241,-1.1247,-1.1718,-1.1724,-1.1731,-1.2083,-1.2087,-1.2091,-1.2094,-1.2573,-1.2585,-1.2597,0,0,0,0,0,0,0,0,0,0,0,0,0,0,0,-1.1235,-1.124,0,-1.1719,-1.1724,-1.173,-1.2084,-1.2087,-1.209,-1.2093,-1.2576,-1.2586,-1.2596,0,0,0,0,0,0,0,0,0,0,0,0,0,0,0,0,0,0,0,0,0,0,0,0,0,0,0,0,0,0,0,0,0,0,0,0,0,0,0,0,0,0,0,0,0,0,0,0,0,0,0,0,0,0,0,0,0,0,0,0,0,0,0,0,0,0,0,0,0]}]]]